| time (UTC) | temp F | wind direction | speed MPH | gust MPH | rain 1hr in | rain 24hr in | rain mn in | humidity % | barometer mb |
| 20260504081030 | 54 | 157 | 3.0 | 7.0 | 0.02 | 0.22 | 0.22 | 93 | 15.0 |
| 20260504045030 | 53 | 0 | 0.0 | 0.0 | 0.00 | 0.00 | 0.00 | 91 | 14.0 |
| 20260504044030 | 53 | 0 | 0.0 | 0.0 | 0.00 | 0.00 | 0.00 | 89 | 13.9 |
| 20260504043030 | 53 | 0 | 0.0 | 0.0 | 0.00 | 0.00 | 0.00 | 87 | 13.7 |
| 20260504042030 | 53 | 0 | 0.0 | 0.0 | 0.00 | 0.00 | 0.00 | 89 | 13.6 |
| 20260504035030 | 53 | 0 | 0.0 | 0.0 | 0.00 | 0.00 | 0.00 | 89 | 13.5 |
| 20260504034030 | 53 | 0 | 0.0 | 0.0 | 0.00 | 0.00 | 0.00 | 87 | 13.4 |
| 20260504033030 | 53 | 0 | 0.0 | 0.0 | 0.00 | 0.00 | 0.00 | 88 | 13.7 |
| 20260504032030 | 53 | 0 | 0.0 | 0.0 | 0.00 | 0.00 | 0.00 | 89 | 13.7 |
| 20260504031030 | 53 | 0 | 0.0 | 0.0 | 0.00 | 0.00 | 0.00 | 86 | 13.9 |
| 20260504030030 | 54 | 0 | 0.0 | 0.0 | 0.00 | 0.00 | 0.00 | 83 | 13.9 |
| 20260504025030 | 55 | 0 | 0.0 | 0.0 | 0.00 | 0.00 | 0.00 | 81 | 14.0 |
| 20260504023030 | 55 | 0 | 0.0 | 0.0 | 0.00 | 0.00 | 0.00 | 80 | 14.0 |
| 20260504022031 | 55 | 0 | 0.0 | 0.0 | 0.00 | 0.00 | 0.00 | 79 | 14.0 |
| 20260504021030 | 55 | 0 | 0.0 | 0.0 | 0.00 | 0.00 | 0.00 | 79 | 13.9 |
| 20260504020030 | 55 | 0 | 0.0 | 0.0 | 0.00 | 0.00 | 0.00 | 82 | 13.8 |
| 20260504014030 | 55 | 0 | 0.0 | 0.0 | 0.00 | 0.00 | 0.00 | 81 | 13.6 |
| 20260504013030 | 55 | 0 | 0.0 | 0.0 | 0.00 | 0.00 | 0.00 | 81 | 13.6 |
| 20260504012030 | 55 | 0 | 0.0 | 0.0 | 0.00 | 0.00 | 0.00 | 78 | 13.6 |
| 20260504011030 | 55 | 0 | 0.0 | 0.0 | 0.00 | 0.00 | 0.00 | 79 | 13.7 |
| 20260504010030 | 55 | 0 | 0.0 | 0.0 | 0.00 | 0.00 | 0.00 | 79 | 13.7 |
| 20260504005029 | 54 | 0 | 0.0 | 0.0 | 0.00 | 0.00 | 0.00 | 80 | 13.8 |
| 20260504004030 | 54 | 0 | 0.0 | 0.0 | 0.00 | 0.00 | 0.00 | 81 | 13.9 |
| 20260504002030 | 54 | 0 | 0.0 | 0.0 | 0.00 | 0.00 | 0.00 | 82 | 14.0 |
| 20260504001029 | 53 | 0 | 0.0 | 0.0 | 0.00 | 0.00 | 0.00 | 83 | 14.1 |
| 20260504000030 | 53 | 0 | 0.0 | 0.0 | 0.00 | 0.00 | 0.00 | 84 | 14.0 |
| 20260503235029 | 53 | 0 | 0.0 | 0.0 | 0.00 | 0.00 | 0.00 | 83 | 14.2 |
| 20260503234029 | 52 | 0 | 0.0 | 0.0 | 0.00 | 0.00 | 0.00 | 87 | 14.2 |
| 20260503233029 | 51 | 0 | 0.0 | 0.0 | 0.00 | 0.00 | 0.00 | 87 | 14.3 |
| 20260503231029 | 52 | 0 | 0.0 | 0.0 | 0.00 | 0.00 | 0.00 | 85 | 14.3 |
| 20260503224029 | 54 | 0 | 0.0 | 0.0 | 0.00 | 0.00 | 0.00 | 78 | 14.2 |
| 20260503223029 | 56 | 0 | 0.0 | 0.0 | 0.00 | 0.00 | 0.00 | 75 | 14.1 |
| 20260503222029 | 55 | 0 | 0.0 | 0.0 | 0.00 | 0.00 | 0.00 | 75 | 14.0 |
| 20260503221029 | 57 | 0 | 0.0 | 0.0 | 0.00 | 0.00 | 0.00 | 73 | 14.0 |
| 20260503220029 | 57 | 0 | 0.0 | 0.0 | 0.00 | 0.00 | 0.00 | 71 | 14.0 |
| 20260503214029 | 58 | 0 | 0.0 | 0.0 | 0.00 | 0.00 | 0.00 | 71 | 13.9 |
| 20260503213030 | 58 | 0 | 0.0 | 0.0 | 0.00 | 0.00 | 0.00 | 70 | 13.9 |
| 20260503212029 | 58 | 0 | 0.0 | 0.0 | 0.00 | 0.00 | 0.00 | 70 | 13.9 |
| 20260503210030 | 58 | 0 | 0.0 | 0.0 | 0.00 | 0.00 | 0.00 | 70 | 13.9 |
| 20260503205029 | 57 | 157 | 0.0 | 1.0 | 0.00 | 0.00 | 0.00 | 73 | 13.8 |
| 20260503204029 | 56 | 0 | 0.0 | 0.0 | 0.00 | 0.00 | 0.00 | 73 | 13.8 |
| 20260503203029 | 57 | 157 | 0.0 | 2.0 | 0.00 | 0.00 | 0.00 | 72 | 13.7 |
| 20260503201029 | 58 | 0 | 0.0 | 0.0 | 0.00 | 0.00 | 0.00 | 70 | 13.7 |
| 20260503200029 | 59 | 157 | 1.0 | 3.0 | 0.00 | 0.00 | 0.00 | 69 | 13.6 |
| 20260503195029 | 60 | 135 | 2.0 | 5.0 | 0.00 | 0.00 | 0.00 | 68 | 13.6 |
| 20260503194029 | 60 | 157 | 2.0 | 5.0 | 0.00 | 0.00 | 0.00 | 67 | 13.5 |
| 20260503193029 | 60 | 135 | 1.0 | 3.0 | 0.00 | 0.00 | 0.00 | 66 | 13.4 |
| 20260503192029 | 60 | 0 | 0.0 | 0.0 | 0.00 | 0.00 | 0.00 | 65 | 13.3 |
| 20260503191029 | 61 | 157 | 2.0 | 4.0 | 0.00 | 0.00 | 0.00 | 63 | 13.1 |
| 20260503190029 | 62 | 157 | 5.0 | 9.0 | 0.00 | 0.00 | 0.00 | 61 | 12.9 |
| 20260503185029 | 62 | 157 | 6.0 | 9.0 | 0.00 | 0.00 | 0.00 | 60 | 13.0 |
| 20260503184029 | 63 | 157 | 5.0 | 13.0 | 0.00 | 0.00 | 0.00 | 59 | 12.9 |
| 20260503183029 | 63 | 157 | 3.0 | 10.0 | 0.00 | 0.00 | 0.00 | 57 | 13.0 |
| 20260503182029 | 64 | 157 | 4.0 | 10.0 | 0.00 | 0.00 | 0.00 | 56 | 12.9 |
| 20260503181029 | 64 | 157 | 5.0 | 11.0 | 0.00 | 0.00 | 0.00 | 55 | 12.8 |
| 20260503180029 | 64 | 157 | 4.0 | 9.0 | 0.00 | 0.00 | 0.00 | 53 | 12.8 |
| 20260503175029 | 64 | 157 | 5.0 | 12.0 | 0.00 | 0.00 | 0.00 | 54 | 12.7 |
| 20260503174029 | 64 | 157 | 6.0 | 13.0 | 0.00 | 0.00 | 0.00 | 54 | 13.0 |
| 20260503172029 | 64 | 157 | 6.0 | 13.0 | 0.00 | 0.00 | 0.00 | 54 | 13.1 |
| 20260503171029 | 64 | 157 | 4.0 | 11.0 | 0.00 | 0.00 | 0.00 | 55 | 13.3 |
| 20260503131029 | 65 | 225 | 5.0 | 14.0 | 0.00 | 0.00 | 0.00 | 57 | 15.9 |